Time,TemperatureF,DewpointF,PressureIn,WindDirection,WindDirectionDegrees,WindSpeedMPH,WindSpeedGustMPH,Humidity,HourlyPrecipIn,Conditions,Clouds,dailyrainin,SoftwareType,DateUTC
2013-03-22 00:02:00,2.0,2.0,-100.00,NW,320,5.0,6.0,99,-99.99,,,-99.99,,2013-03-22 05:02:00,
2013-03-22 00:32:00,3.0,2.0,-100.00,NW,325,4.0,5.0,99,-99.99,,,-99.99,,2013-03-22 05:32:00,
2013-03-22 00:42:00,3.0,2.0,-100.00,NW,325,4.0,5.0,99,-99.99,,,-99.99,,2013-03-22 05:42:00,
2013-03-22 00:52:00,3.0,2.0,-100.00,NW,325,4.0,5.0,99,-99.99,,,-99.99,,2013-03-22 05:52:00,
2013-03-22 01:02:00,3.0,2.0,-100.00,NW,325,4.0,5.0,99,-99.99,,,-99.99,,2013-03-22 06:02:00,
2013-03-22 01:10:00,3.0,2.0,-100.00,NW,325,5.0,5.0,99,-99.99,,,-99.99,,2013-03-22 06:10:00,
2013-03-22 01:32:00,3.0,2.0,-100.00,NW,325,5.0,5.0,99,-99.99,,,-99.99,,2013-03-22 06:32:00,
2013-03-22 01:43:00,3.0,2.0,-100.00,NW,325,5.0,5.0,99,-99.99,,,-99.99,,2013-03-22 06:43:00,
2013-03-22 01:52:00,3.0,2.0,-100.00,NW,325,5.0,5.0,99,-99.99,,,-99.99,,2013-03-22 06:52:00,
2013-03-22 02:02:00,3.0,2.0,-100.00,NW,325,5.0,5.0,99,-99.99,,,-99.99,,2013-03-22 07:02:00,
2013-03-22 02:32:00,-1.0,-1.0,-100.00,WNW,285,7.0,8.0,99,-99.99,,,-99.99,,2013-03-22 07:32:00,
2013-03-22 02:42:00,-1.0,-1.0,-100.00,WNW,285,7.0,8.0,99,-99.99,,,-99.99,,2013-03-22 07:42:00,
2013-03-22 02:52:00,-1.0,-1.0,-100.00,WNW,285,7.0,8.0,99,-99.99,,,-99.99,,2013-03-22 07:52:00,
2013-03-22 03:03:00,-1.0,-1.0,-100.00,WNW,285,7.0,8.0,99,-99.99,,,-99.99,,2013-03-22 08:03:00,
2013-03-22 03:32:00,-1.0,-1.0,-100.00,WNW,285,3.0,4.0,99,-99.99,,,-99.99,,2013-03-22 08:32:00,
2013-03-22 03:42:00,-1.0,-1.0,-100.00,WNW,285,3.0,4.0,99,-99.99,,,-99.99,,2013-03-22 08:42:00,
2013-03-22 03:52:00,-1.0,-1.0,-100.00,WNW,285,3.0,4.0,99,-99.99,,,-99.99,,2013-03-22 08:52:00,
2013-03-22 04:02:00,-1.0,-1.0,-100.00,WNW,285,3.0,4.0,99,-99.99,,,-99.99,,2013-03-22 09:02:00,
2013-03-22 04:33:00,2.0,2.0,-100.00,WNW,290,6.0,7.0,99,-99.99,,,-99.99,,2013-03-22 09:33:00,
2013-03-22 04:42:00,2.0,2.0,-100.00,WNW,290,6.0,7.0,99,-99.99,,,-99.99,,2013-03-22 09:42:00,
2013-03-22 04:53:00,2.0,2.0,-100.00,WNW,290,6.0,7.0,99,-99.99,,,-99.99,,2013-03-22 09:53:00,
2013-03-22 05:03:00,2.0,2.0,-100.00,WNW,290,6.0,7.0,99,-99.99,,,-99.99,,2013-03-22 10:03:00,
2013-03-22 05:33:00,2.0,2.0,-100.00,WNW,300,6.0,6.0,99,-99.99,,,-99.99,,2013-03-22 10:33:00,
2013-03-22 05:42:00,2.0,2.0,-100.00,WNW,300,6.0,6.0,99,-99.99,,,-99.99,,2013-03-22 10:42:00,
2013-03-22 05:52:00,2.0,2.0,-100.00,WNW,300,6.0,6.0,99,-99.99,,,-99.99,,2013-03-22 10:52:00,
2013-03-22 06:03:00,2.0,2.0,-100.00,WNW,300,6.0,6.0,99,-99.99,,,-99.99,,2013-03-22 11:03:00,
2013-03-22 06:33:00,-1.0,-1.0,-100.00,WSW,245,3.0,4.0,99,-99.99,,,-99.99,,2013-03-22 11:33:00,
2013-03-22 06:42:00,-1.0,-1.0,-100.00,WSW,245,3.0,4.0,99,-99.99,,,-99.99,,2013-03-22 11:42:00,
2013-03-22 06:52:00,-1.0,-1.0,-100.00,WSW,245,3.0,4.0,99,-99.99,,,-99.99,,2013-03-22 11:52:00,
2013-03-22 07:02:00,-1.0,-1.0,-100.00,WSW,245,3.0,4.0,99,-99.99,,,-99.99,,2013-03-22 12:02:00,
2013-03-22 07:32:00,0.0,0.0,-100.00,NW,325,4.0,4.0,99,-99.99,,,-99.99,,2013-03-22 12:32:00,
2013-03-22 07:42:00,0.0,0.0,-100.00,NW,325,4.0,4.0,99,-99.99,,,-99.99,,2013-03-22 12:42:00,
2013-03-22 07:52:00,0.0,0.0,-100.00,NW,325,4.0,4.0,99,-99.99,,,-99.99,,2013-03-22 12:52:00,
2013-03-22 08:02:00,0.0,0.0,-100.00,NW,325,4.0,4.0,99,-99.99,,,-99.99,,2013-03-22 13:02:00,
2013-03-22 08:32:00,-1.0,-1.0,-100.00,WNW,300,4.0,5.0,99,-99.99,,,-99.99,,2013-03-22 13:32:00,
2013-03-22 08:42:00,-1.0,-1.0,-100.00,WNW,300,4.0,5.0,99,-99.99,,,-99.99,,2013-03-22 13:42:00,
2013-03-22 08:52:00,-1.0,-1.0,-100.00,WNW,300,4.0,5.0,99,-99.99,,,-99.99,,2013-03-22 13:52:00,
2013-03-22 09:02:00,-1.0,-1.0,-100.00,WNW,300,4.0,5.0,99,-99.99,,,-99.99,,2013-03-22 14:02:00,
2013-03-22 09:32:00,3.0,3.0,-100.00,WSW,245,3.0,4.0,99,-99.99,,,-99.99,,2013-03-22 14:32:00,
2013-03-22 09:43:00,3.0,3.0,-100.00,WSW,245,3.0,4.0,99,-99.99,,,-99.99,,2013-03-22 14:43:00,
2013-03-22 09:52:00,3.0,3.0,-100.00,WSW,245,3.0,4.0,99,-99.99,,,-99.99,,2013-03-22 14:52:00,
2013-03-22 10:03:00,3.0,3.0,-100.00,WSW,245,3.0,4.0,99,-99.99,,,-99.99,,2013-03-22 15:03:00,
2013-03-22 10:10:00,6.0,6.0,-100.00,WSW,245,4.0,5.0,99,-99.99,,,-99.99,,2013-03-22 15:10:00,
2013-03-22 10:33:00,6.0,6.0,-100.00,WSW,245,4.0,5.0,99,-99.99,,,-99.99,,2013-03-22 15:33:00,
2013-03-22 10:43:00,6.0,6.0,-100.00,WSW,245,4.0,5.0,99,-99.99,,,-99.99,,2013-03-22 15:43:00,
2013-03-22 10:53:00,6.0,6.0,-100.00,WSW,245,4.0,5.0,99,-99.99,,,-99.99,,2013-03-22 15:53:00,
2013-03-22 11:02:00,6.0,6.0,-100.00,WSW,245,4.0,5.0,99,-99.99,,,-99.99,,2013-03-22 16:02:00,
2013-03-22 11:32:00,8.0,7.0,-100.00,WSW,245,6.0,6.0,97,-99.99,,,-99.99,,2013-03-22 16:32:00,
2013-03-22 11:42:00,8.0,7.0,-100.00,WSW,245,6.0,6.0,97,-99.99,,,-99.99,,2013-03-22 16:42:00,
2013-03-22 11:52:00,8.0,7.0,-100.00,WSW,245,6.0,6.0,97,-99.99,,,-99.99,,2013-03-22 16:52:00,
2013-03-22 12:03:00,8.0,7.0,-100.00,WSW,245,6.0,6.0,97,-99.99,,,-99.99,,2013-03-22 17:03:00,
2013-03-22 12:33:00,11.0,8.0,-100.00,NNW,345,6.0,6.0,88,-99.99,,,-99.99,,2013-03-22 17:33:00,
2013-03-22 12:42:00,11.0,8.0,-100.00,NNW,345,6.0,6.0,88,-99.99,,,-99.99,,2013-03-22 17:42:00,
2013-03-22 12:53:00,11.0,8.0,-100.00,NNW,345,6.0,6.0,88,-99.99,,,-99.99,,2013-03-22 17:53:00,
2013-03-22 13:02:00,11.0,8.0,-100.00,NNW,345,6.0,6.0,88,-99.99,,,-99.99,,2013-03-22 18:02:00,
2013-03-22 13:10:00,14.0,10.0,-100.00,North,350,5.0,6.0,85,-99.99,,,-99.99,,2013-03-22 18:10:00,
2013-03-22 13:33:00,14.0,10.0,-100.00,North,350,5.0,6.0,85,-99.99,,,-99.99,,2013-03-22 18:33:00,
2013-03-22 13:42:00,14.0,10.0,-100.00,North,350,5.0,6.0,85,-99.99,,,-99.99,,2013-03-22 18:42:00,
2013-03-22 13:52:00,14.0,10.0,-100.00,North,350,5.0,6.0,85,-99.99,,,-99.99,,2013-03-22 18:52:00,
2013-03-22 14:02:00,14.0,10.0,-100.00,North,350,5.0,6.0,85,-99.99,,,-99.99,,2013-03-22 19:02:00,
2013-03-22 14:10:00,18.0,12.0,-100.00,WSW,245,4.0,5.0,76,-99.99,,,-99.99,,2013-03-22 19:10:00,
2013-03-22 14:33:00,18.0,12.0,-100.00,WSW,245,4.0,5.0,76,-99.99,,,-99.99,,2013-03-22 19:33:00,
2013-03-22 14:43:00,18.0,12.0,-100.00,WSW,245,4.0,5.0,76,-99.99,,,-99.99,,2013-03-22 19:43:00,
2013-03-22 14:52:00,18.0,12.0,-100.00,WSW,245,4.0,5.0,76,-99.99,,,-99.99,,2013-03-22 19:52:00,
2013-03-22 15:02:00,18.0,12.0,-100.00,WSW,245,4.0,5.0,76,-99.99,,,-99.99,,2013-03-22 20:02:00,
2013-03-22 15:32:00,19.0,13.0,-100.00,WSW,245,4.0,6.0,77,-99.99,,,-99.99,,2013-03-22 20:32:00,
2013-03-22 15:43:00,19.0,13.0,-100.00,WSW,245,4.0,6.0,77,-99.99,,,-99.99,,2013-03-22 20:43:00,
2013-03-22 15:52:00,19.0,13.0,-100.00,WSW,245,4.0,6.0,77,-99.99,,,-99.99,,2013-03-22 20:52:00,
2013-03-22 16:03:00,19.0,13.0,-100.00,WSW,245,4.0,6.0,77,-99.99,,,-99.99,,2013-03-22 21:03:00,
2013-03-22 16:33:00,20.0,13.0,-100.00,WSW,245,5.0,6.0,75,-99.99,,,-99.99,,2013-03-22 21:33:00,
2013-03-22 16:43:00,20.0,13.0,-100.00,WSW,245,5.0,6.0,75,-99.99,,,-99.99,,2013-03-22 21:43:00,
2013-03-22 16:53:00,20.0,13.0,-100.00,WSW,245,5.0,6.0,75,-99.99,,,-99.99,,2013-03-22 21:53:00,
2013-03-22 17:03:00,20.0,13.0,-100.00,WSW,245,5.0,6.0,75,-99.99,,,-99.99,,2013-03-22 22:03:00,
2013-03-22 17:32:00,19.0,13.0,-100.00,WSW,245,6.0,7.0,80,-99.99,,,-99.99,,2013-03-22 22:32:00,
2013-03-22 17:43:00,19.0,13.0,-100.00,WSW,245,6.0,7.0,80,-99.99,,,-99.99,,2013-03-22 22:43:00,
2013-03-22 17:53:00,19.0,13.0,-100.00,WSW,245,6.0,7.0,80,-99.99,,,-99.99,,2013-03-22 22:53:00,
2013-03-22 18:02:00,19.0,13.0,-100.00,WSW,245,6.0,7.0,80,-99.99,,,-99.99,,2013-03-22 23:02:00,
2013-03-22 18:10:00,18.0,13.0,-100.00,WSW,245,4.0,5.0,82,-99.99,,,-99.99,,2013-03-22 23:10:00,
2013-03-22 18:32:00,18.0,13.0,-100.00,WSW,245,4.0,5.0,82,-99.99,,,-99.99,,2013-03-22 23:32:00,
2013-03-22 18:42:00,18.0,13.0,-100.00,WSW,245,4.0,5.0,82,-99.99,,,-99.99,,2013-03-22 23:42:00,
2013-03-22 18:52:00,18.0,13.0,-100.00,WSW,245,4.0,5.0,82,-99.99,,,-99.99,,2013-03-22 23:52:00,
2013-03-22 19:02:00,18.0,13.0,-100.00,WSW,245,4.0,5.0,82,-99.99,,,-99.99,,2013-03-23 00:02:00,
2013-03-22 19:33:00,16.0,13.0,-100.00,NW,310,4.0,4.0,86,-99.99,,,-99.99,,2013-03-23 00:33:00,
2013-03-22 19:42:00,16.0,13.0,-100.00,NW,310,4.0,4.0,86,-99.99,,,-99.99,,2013-03-23 00:42:00,
2013-03-22 19:52:00,16.0,13.0,-100.00,NW,310,4.0,4.0,86,-99.99,,,-99.99,,2013-03-23 00:52:00,
2013-03-22 20:03:00,16.0,13.0,-100.00,NW,310,4.0,4.0,86,-99.99,,,-99.99,,2013-03-23 01:03:00,
2013-03-22 20:10:00,13.0,10.0,-100.00,West,270,3.0,4.0,89,-99.99,,,-99.99,,2013-03-23 01:10:00,
2013-03-22 20:32:00,13.0,10.0,-100.00,West,270,3.0,4.0,89,-99.99,,,-99.99,,2013-03-23 01:32:00,
2013-03-22 20:43:00,13.0,10.0,-100.00,West,270,3.0,4.0,89,-99.99,,,-99.99,,2013-03-23 01:43:00,
2013-03-22 20:52:00,13.0,10.0,-100.00,West,270,3.0,4.0,89,-99.99,,,-99.99,,2013-03-23 01:52:00,
2013-03-22 21:02:00,13.0,10.0,-100.00,West,270,3.0,4.0,89,-99.99,,,-99.99,,2013-03-23 02:02:00,
2013-03-22 21:10:00,12.0,11.0,-100.00,NNW,340,5.0,6.0,93,-99.99,,,-99.99,,2013-03-23 02:10:00,
2013-03-22 21:32:00,12.0,11.0,-100.00,NNW,340,5.0,6.0,93,-99.99,,,-99.99,,2013-03-23 02:32:00,
2013-03-22 21:42:00,12.0,11.0,-100.00,NNW,340,5.0,6.0,93,-99.99,,,-99.99,,2013-03-23 02:42:00,
2013-03-22 21:52:00,12.0,11.0,-100.00,NNW,340,5.0,6.0,93,-99.99,,,-99.99,,2013-03-23 02:52:00,
2013-03-22 22:02:00,12.0,11.0,-100.00,NNW,340,5.0,6.0,93,-99.99,,,-99.99,,2013-03-23 03:02:00,
2013-03-22 22:11:00,10.0,9.0,-100.00,NW,305,5.0,6.0,94,-99.99,,,-99.99,,2013-03-23 03:11:00,
2013-03-22 22:33:00,10.0,9.0,-100.00,NW,305,5.0,6.0,94,-99.99,,,-99.99,,2013-03-23 03:33:00,
2013-03-22 22:43:00,10.0,9.0,-100.00,NW,305,5.0,6.0,94,-99.99,,,-99.99,,2013-03-23 03:43:00,
2013-03-22 22:53:00,10.0,9.0,-100.00,NW,305,5.0,6.0,94,-99.99,,,-99.99,,2013-03-23 03:53:00,
2013-03-22 23:02:00,10.0,9.0,-100.00,NW,305,5.0,6.0,94,-99.99,,,-99.99,,2013-03-23 04:02:00,
2013-03-22 23:33:00,9.0,8.0,-100.00,NW,315,4.0,6.0,96,-99.99,,,-99.99,,2013-03-23 04:33:00,
2013-03-22 23:43:00,9.0,8.0,-100.00,NW,315,4.0,6.0,96,-99.99,,,-99.99,,2013-03-23 04:43:00,
2013-03-22 23:53:00,9.0,8.0,-100.00,NW,315,4.0,6.0,96,-99.99,,,-99.99,,2013-03-23 04:53:00,